TimeEST,TemperatureF,Dew PointF,Humidity,Sea Level PressureIn,VisibilityMPH,Wind Direction,Wind SpeedMPH,Gust SpeedMPH,PrecipitationIn,Events,Conditions,WindDirDegrees,DateUTC
12:51 AM,43.0,19.0,38,30.13,10.0,NNE,6.9,-,N/A,,Clear,20,2013-02-21 05:51:00
1:51 AM,42.1,19.0,40,30.14,10.0,Calm,Calm,-,N/A,,Clear,0,2013-02-21 06:51:00
2:51 AM,41.0,19.9,43,30.12,10.0,NNE,3.5,-,N/A,,Clear,30,2013-02-21 07:51:00
3:51 AM,41.0,19.0,41,30.11,10.0,Calm,Calm,-,N/A,,Clear,0,2013-02-21 08:51:00
4:51 AM,39.9,19.0,43,30.11,10.0,NE,3.5,-,N/A,,Clear,40,2013-02-21 09:51:00
5:51 AM,37.0,21.9,54,30.13,10.0,Calm,Calm,-,N/A,,Clear,0,2013-02-21 10:51:00
6:51 AM,37.0,25.0,62,30.15,10.0,Calm,Calm,-,N/A,,Clear,0,2013-02-21 11:51:00
7:51 AM,37.0,25.0,62,30.17,10.0,Calm,Calm,-,N/A,,Clear,0,2013-02-21 12:51:00
8:51 AM,41.0,24.1,51,30.17,10.0,Calm,Calm,-,N/A,,Clear,0,2013-02-21 13:51:00
9:51 AM,46.9,19.9,34,30.17,10.0,East,6.9,-,N/A,,Clear,90,2013-02-21 14:51:00
10:51 AM,54.0,19.9,26,30.16,10.0,ESE,5.8,-,N/A,,Clear,120,2013-02-21 15:51:00
11:51 AM,59.0,21.9,24,30.15,10.0,SSE,6.9,-,N/A,,Clear,160,2013-02-21 16:51:00
12:51 PM,62.1,21.0,21,30.10,10.0,SSW,4.6,-,N/A,,Clear,210,2013-02-21 17:51:00
1:51 PM,66.0,21.0,18,30.06,10.0,Variable,5.8,-,N/A,,Clear,0,2013-02-21 18:51:00
2:51 PM,68.0,23.0,18,30.01,10.0,SE,9.2,-,N/A,,Clear,140,2013-02-21 19:51:00
3:51 PM,68.0,23.0,18,29.98,5.0,SE,9.2,-,N/A,,Smoke,130,2013-02-21 20:51:00
4:51 PM,68.0,21.9,17,29.96,10.0,SSE,10.4,-,N/A,,Clear,150,2013-02-21 21:51:00
5:51 PM,66.9,24.1,20,29.98,10.0,South,11.5,-,N/A,,Overcast,170,2013-02-21 22:51:00
6:51 PM,66.0,26.1,22,30.01,10.0,South,10.4,-,N/A,,Overcast,170,2013-02-21 23:51:00
7:51 PM,64.0,28.0,26,30.00,10.0,ESE,6.9,-,N/A,,Mostly Cloudy,120,2013-02-22 00:51:00
8:51 PM,62.1,28.9,29,30.00,10.0,SSE,8.1,-,N/A,,Scattered Clouds,150,2013-02-22 01:51:00
9:51 PM,60.8,30.2,31,30.00,10.0,SE,8.1,-,N/A,,Clear,140,2013-02-22 02:51:00
10:51 PM,61.0,34.0,36,29.98,10.0,SE,8.1,-,N/A,,Clear,140,2013-02-22 03:51:00
11:51 PM,62.1,36.0,38,29.97,10.0,South,4.6,-,N/A,,Clear,170,2013-02-22 04:51:00